CW4621 Weather Reports


Display with metric or nautical units.
time (UTC)temp
F
wind
direction
speed
MPH
gust
MPH
rain 1hr
in
rain 24hr
in
rain mn
in
humidity
%
barometer
mb
20260903093104 71 166 0.0 2.0 0.34 1.16 1.12 96 1016.1
20260903092104 71 173 0.0 1.0 0.33 1.14 1.10 96 1016.1
20260903091604 71 154 0.0 2.0 0.36 1.13 1.09 96 1016.3
20260903091104 71 161 1.0 1.0 0.36 1.13 1.09 96 1016.9
20260903090604 71 204 1.0 2.0 0.34 1.11 1.07 96 1017.5
20260903085604 71 1 0.0 1.0 0.20 0.97 0.92 96 1017.5
20260903085105 71 356 0.0 3.0 0.23 0.94 0.89 96 1017.0
20260903084605 71 359 0.0 6.0 0.22 0.93 0.88 96 1017.1
20260903084104 71 341 1.0 6.0 0.20 0.91 0.86 96 1017.0
20260903083604 71 14 0.0 1.0 0.13 0.84 0.79 96 1016.5
20260903083104 71 195 0.0 0.0 0.12 0.83 0.78 96 1016.3
20260903082604 71 195 0.0 0.0 0.12 0.83 0.78 96 1015.9
20260903082105 71 195 0.0 1.0 0.11 0.82 0.77 96 1016.0
20260903081604 71 188 0.0 0.0 0.07 0.78 0.73 96 1016.1
20260903081104 71 188 0.0 0.0 0.07 0.78 0.73 96 1015.8
20260903075605 71 247 0.0 1.0 0.06 0.77 0.72 96 1016.0
20260903074605 70 93 0.0 0.0 0.01 0.71 0.66 95 1015.9
20260903074104 70 93 0.0 1.0 0.01 0.71 0.66 95 1015.8
20260903073604 70 85 0.0 1.0 0.03 0.71 0.66 95 1015.8
20260903073104 70 152 0.0 1.0 0.06 0.71 0.66 95 1015.8
20260903072604 70 159 0.0 0.0 0.13 0.71 0.66 95 1015.8
20260903072104 70 159 0.0 0.0 0.36 0.71 0.66 95 1015.8
20260903071605 70 159 0.0 0.0 0.63 0.71 0.66 95 1015.7
20260903071104 70 159 0.0 0.0 0.66 0.71 0.66 95 1015.9
20260903070604 70 159 0.0 1.0 0.66 0.71 0.66 95 1016.0
20260903065604 70 92 0.0 1.0 0.66 0.71 0.66 95 1015.9
20260903065104 70 162 0.0 5.0 0.66 0.71 0.66 95 1015.9
20260903064605 71 333 0.0 2.0 0.65 0.70 0.65 94 1015.7
20260903064105 71 171 2.0 6.0 0.65 0.70 0.65 94 1015.8
20260903063605 71 339 0.0 1.0 0.63 0.68 0.63 94 1016.1
20260903062604 71 11 0.0 2.0 0.53 0.58 0.53 93 1017.7
20260903062105 71 31 0.0 3.0 0.30 0.35 0.30 93 1018.1
20260903061604 71 312 0.0 2.0 0.03 0.08 0.03 93 1018.7
20260903061105 71 358 0.0 2.0 0.00 0.05 0.00 93 1018.2
20260903060605 71 338 0.0 1.0 0.00 0.05 0.00 93 1017.6
20260903060104 71 2 1.0 2.0 0.00 0.05 0.00 93 1017.2
20260903055605 71 15 0.0 1.0 0.00 0.05 0.00 93 1017.3
20260903055104 71 18 0.0 5.0 0.00 0.05 0.00 93 1017.1
20260903054104 71 355 0.0 2.0 0.00 0.05 0.00 93 1016.6
20260903053604 71 29 0.0 1.0 0.00 0.05 0.00 93 1017.0
20260903051604 71 103 0.0 0.0 0.00 0.05 0.00 93 1016.8
20260903051104 71 103 0.0 1.0 0.00 0.05 0.00 93 1016.7
20260903050605 71 112 0.0 1.0 0.00 0.05 0.00 93 1016.7
20260903050104 71 112 0.0 0.0 0.00 0.05 0.00 92 1016.6
20260903045604 71 112 0.0 0.0 0.00 0.05 0.00 92 1016.7
20260903045104 71 112 0.0 1.0 0.00 0.05 0.00 92 1016.6
20260903044604 71 347 0.0 0.0 0.00 0.05 0.00 92 1016.9
20260903044105 71 347 0.0 0.0 0.00 0.05 0.00 92 1016.8
20260903043604 71 347 0.0 0.0 0.00 0.05 0.00 92 1017.1
20260903043104 71 347 0.0 1.0 0.00 0.05 0.00 92 1017.0
20260903042104 71 347 0.0 1.0 0.00 0.05 0.00 92 1017.3
20260903041604 71 347 0.0 0.0 0.00 0.05 0.00 92 1017.4
20260903041105 71 347 0.0 1.0 0.00 0.05 0.00 92 1017.5
20260903040604 71 347 1.0 1.0 0.00 0.05 0.00 92 1017.5
20260903035604 71 55 0.0 1.0 0.00 0.05 0.05 92 1017.7
20260903034605 71 55 0.0 0.0 0.00 0.05 0.05 92 1017.4
20260903034104 71 55 0.0 1.0 0.00 0.05 0.05 92 1017.3
20260903033604 71 120 0.0 1.0 0.00 0.05 0.05 92 1017.2
20260903032104 72 120 0.0 0.0 0.00 0.05 0.05 92 1017.3
20260903031104 72 139 0.0 0.0 0.00 0.05 0.05 92 1017.2
20260903030604 72 140 0.0 2.0 0.00 0.05 0.05 92 1017.3
20260903025604 71 84 0.0 1.0 0.00 0.05 0.05 92 1017.5
20260903025105 72 68 0.0 0.0 0.00 0.05 0.05 92 1017.6
20260903024604 72 68 0.0 1.0 0.00 0.05 0.05 92 1017.5
20260903024105 72 67 0.0 1.0 0.00 0.05 0.05 92 1017.5
20260903023604 72 67 0.0 1.0 0.00 0.05 0.05 92 1017.7
20260903023104 72 67 0.0 1.0 0.00 0.05 0.05 92 1017.3
20260903022104 72 89 0.0 1.0 0.00 0.05 0.05 92 1017.2
20260903021104 72 51 1.0 3.0 0.00 0.05 0.05 92 1016.8
20260903020605 72 86 0.0 0.0 0.00 0.05 0.05 92 1016.9
20260903015105 72 176 0.0 1.0 0.00 0.05 0.05 92 1017.2
20260903014605 72 101 0.0 2.0 0.00 0.05 0.05 92 1017.3
20260903014105 72 39 0.0 0.0 0.00 0.05 0.05 92 1017.4
20260903013605 72 124 0.0 1.0 0.00 0.05 0.05 92 1017.4
20260903013105 72 31 0.0 3.0 0.00 0.05 0.05 92 1017.5
20260903012604 72 87 0.0 2.0 0.00 0.05 0.05 92 1017.5
20260903012105 72 67 0.0 1.0 0.00 0.05 0.05 92 1017.6
20260903011605 72 103 0.0 1.0 0.00 0.07 0.05 92 1017.6
20260903010105 72 66 0.0 1.0 0.00 0.08 0.05 92 1017.5
20260903005105 72 94 0.0 1.0 0.00 0.10 0.05 91 1017.5
20260903004605 72 88 0.0 2.0 0.00 0.12 0.05 91 1017.6
20260903003606 73 63 0.0 1.0 0.00 0.15 0.05 91 1017.6
20260903003105 73 118 0.0 1.0 0.00 0.15 0.05 91 1017.6
20260903002604 73 119 0.0 2.0 0.00 0.15 0.05 91 1017.6
20260903002104 73 111 0.0 2.0 0.00 0.15 0.05 91 1017.4
20260903001604 73 70 0.0 0.0 0.00 0.15 0.05 91 1017.3
20260903000605 73 70 0.0 1.0 0.00 0.15 0.05 91 1017.1
20260903000104 73 69 0.0 1.0 0.00 0.15 0.05 91 1017.1
20260902235604 73 75 0.0 0.0 0.00 0.15 0.05 91 1017.0
20260902234605 73 46 0.0 1.0 0.00 0.15 0.05 91 1016.9
20260902233604 73 205 0.0 1.0 0.00 0.15 0.05 90 1017.0
20260902233104 73 235 0.0 2.0 0.00 0.15 0.05 90 1016.8
20260902232604 73 157 0.0 1.0 0.00 0.15 0.05 90 1016.8
20260902232104 73 166 0.0 1.0 0.00 0.15 0.05 90 1016.9
20260902231605 73 76 0.0 1.0 0.00 0.15 0.05 90 1017.0
20260902231105 73 84 0.0 2.0 0.00 0.15 0.05 90 1017.0
20260902230106 74 88 0.0 2.0 0.00 0.15 0.05 90 1017.0
20260902225605 74 79 0.0 2.0 0.00 0.15 0.05 90 1017.2
20260902225104 74 99 1.0 3.0 0.00 0.15 0.05 90 1017.3
20260902224104 74 74 0.0 1.0 0.00 0.15 0.05 90 1017.5
20260902223104 74 82 0.0 1.0 0.00 0.15 0.05 90 1017.5
20260902222605 74 43 0.0 1.0 0.00 0.15 0.05 90 1017.6
20260902222105 74 63 0.0 3.0 0.00 0.15 0.05 90 1017.6
20260902221604 74 68 0.0 2.0 0.00 0.15 0.05 90 1017.6
20260902221104 74 23 0.0 2.0 0.00 0.15 0.05 90 1017.4
20260902220105 75 50 0.0 2.0 0.00 0.15 0.05 90 1017.4
20260902215604 75 108 1.0 3.0 0.00 0.15 0.05 90 1017.3
20260902215104 74 107 1.0 5.0 0.00 0.15 0.05 90 1017.4
20260902214604 74 84 0.0 2.0 0.00 0.15 0.05 91 1017.1
20260902214104 74 107 0.0 3.0 0.00 0.15 0.05 92 1017.1
20260902213605 74 73 0.0 2.0 0.00 0.15 0.05 92 1017.3
20260902213104 74 62 1.0 3.0 0.00 0.15 0.05 92 1017.2
20260902212105 74 94 1.0 3.0 0.00 0.15 0.05 92 1017.3
20260902211604 74 107 1.0 3.0 0.00 0.15 0.05 93 1017.2
20260902211104 74 11 0.0 0.0 0.00 0.15 0.05 93 1017.3
20260902210605 74 20 0.0 2.0 0.00 0.15 0.05 93 1017.5
20260902205104 74 88 0.0 1.0 0.00 0.15 0.05 93 1017.5
20260902204605 73 105 0.0 2.0 0.00 0.15 0.05 93 1017.4
20260902204105 73 81 0.0 2.0 0.00 0.15 0.05 93 1017.4
20260902203604 73 78 1.0 3.0 0.00 0.15 0.05 93 1017.2
20260902203104 73 41 0.0 1.0 0.00 0.15 0.05 93 1017.1
20260902202604 73 70 0.0 1.0 0.00 0.15 0.05 93 1017.1
20260902202105 73 109 1.0 3.0 0.00 0.15 0.05 93 1017.0
20260902201604 73 37 0.0 2.0 0.00 0.15 0.05 93 1017.1
20260902201105 73 33 0.0 1.0 0.00 0.15 0.05 93 1017.1
20260902200105 73 35 0.0 1.0 0.00 0.15 0.05 93 1017.5
20260902195605 73 94 0.0 1.0 0.00 0.15 0.05 93 1017.6
20260902195104 73 1 0.0 1.0 0.00 0.15 0.05 93 1017.5
20260902194604 73 348 0.0 1.0 0.00 0.15 0.05 93 1017.6
20260902194105 73 95 0.0 2.0 0.00 0.15 0.05 93 1017.5
20260902193604 73 15 0.0 1.0 0.00 0.15 0.05 93 1017.5
20260902191604 73 22 0.0 1.0 0.01 0.15 0.05 93 1017.8
20260902191104 73 23 0.0 1.0 0.02 0.15 0.05 92 1018.0
20260902190604 73 34 0.0 1.0 0.03 0.15 0.05 92 1018.0
20260902190104 73 52 0.0 1.0 0.04 0.15 0.05 92 1018.0
20260902185604 73 53 0.0 1.0 0.04 0.15 0.05 92 1018.1
20260902185104 73 51 0.0 1.0 0.04 0.15 0.05 92 1018.1
20260902184604 73 51 0.0 1.0 0.04 0.15 0.05 92 1018.1
20260902184104 73 51 0.0 1.0 0.04 0.15 0.05 92 1018.0
20260902183605 73 189 0.0 1.0 0.04 0.15 0.05 92 1017.9
20260902183104 74 220 0.0 3.0 0.03 0.14 0.04 92 1017.9
20260902182605 74 119 0.0 3.0 0.03 0.14 0.04 92 1017.8
20260902182105 74 143 1.0 3.0 0.03 0.14 0.04 91 1017.8
20260902181604 74 209 0.0 1.0 0.03 0.14 0.04 91 1017.9
20260902180604 74 210 1.0 5.0 0.01 0.12 0.02 90 1018.2
20260902175605 75 121 1.0 3.0 0.00 0.11 0.01 89 1018.8
20260902174604 75 11 0.0 1.0 0.00 0.11 0.01 88 1018.9
20260902173604 75 10 0.0 1.0 0.00 0.11 0.01 88 1019.1
20260902172604 75 10 0.0 1.0 0.00 0.11 0.01 88 1019.3
20260902172104 76 358 0.0 1.0 0.00 0.11 0.01 88 1019.3
20260902170604 76 327 0.0 1.0 0.00 0.11 0.01 88 1019.0
20260902170104 76 134 0.0 2.0 0.00 0.11 0.01 89 1019.0
20260902165604 76 246 0.0 2.0 0.00 0.11 0.01 89 1018.8
20260902165104 75 190 0.0 2.0 0.00 0.11 0.01 89 1018.6
20260902164604 75 2 1.0 2.0 0.00 0.11 0.01 89 1018.6
20260902164104 75 88 2.0 3.0 0.00 0.11 0.01 89 1018.6
20260902163104 75 15 1.0 2.0 0.00 0.11 0.01 89 1018.6
20260902162604 75 46 1.0 2.0 0.00 0.11 0.01 89 1018.7
20260902162104 75 52 0.0 2.0 0.00 0.11 0.01 89 1018.8
20260902161604 75 55 1.0 5.0 0.00 0.11 0.01 88 1018.8
20260902161104 76 76 1.0 3.0 0.00 0.11 0.01 88 1018.9
20260902160604 76 33 1.0 3.0 0.00 0.11 0.01 89 1018.9
20260902160104 75 144 0.0 2.0 0.00 0.11 0.01 89 1019.0
20260902155604 75 357 1.0 3.0 0.00 0.11 0.01 89 1018.9
20260902155105 75 82 1.0 3.0 0.00 0.11 0.01 89 1018.9
20260902154604 75 38 1.0 3.0 0.00 0.11 0.01 90 1018.9
20260902154104 75 178 0.0 2.0 0.00 0.11 0.01 90 1018.8
20260902153605 74 158 1.0 2.0 0.00 0.11 0.01 90 1018.9
20260902153103 74 50 0.0 2.0 0.00 0.11 0.01 90 1018.8
20260902152604 74 37 0.0 1.0 0.00 0.11 0.01 91 1018.8
20260902152104 74 104 1.0 3.0 0.00 0.11 0.01 90 1018.9
20260902151604 74 66 0.0 2.0 0.00 0.11 0.01 91 1019.0
20260902151104 74 84 0.0 1.0 0.00 0.11 0.01 91 1019.0
20260902150604 73 84 0.0 1.0 0.00 0.11 0.01 91 1019.0
20260902150104 73 84 0.0 2.0 0.00 0.11 0.01 90 1019.0
20260902145104 73 18 0.0 2.0 0.00 0.11 0.01 91 1019.0
20260902143605 73 11 0.0 1.0 0.00 0.11 0.01 92 1018.8
20260902143105 73 49 1.0 3.0 0.00 0.11 0.01 92 1018.9
20260902142605 72 86 0.0 1.0 0.00 0.11 0.01 93 1018.9
20260902142104 72 110 1.0 2.0 0.00 0.11 0.01 93 1018.9
20260902141604 72 83 1.0 3.0 0.00 0.11 0.01 93 1018.7
20260902141104 72 1 0.0 1.0 0.00 0.11 0.01 93 1018.8
20260902140605 72 31 0.0 2.0 0.00 0.11 0.01 93 1018.8
20260902135604 72 33 0.0 2.0 0.00 0.11 0.01 93 1019.1
20260902135105 72 16 1.0 2.0 0.00 0.11 0.01 93 1019.0
20260902134605 72 242 2.0 3.0 0.00 0.11 0.01 93 1018.7
20260902134104 72 35 0.0 2.0 0.00 0.11 0.01 94 1018.7
20260902133105 72 14 0.0 1.0 0.00 0.11 0.01 95 1018.4
20260902132604 72 85 0.0 3.0 0.00 0.11 0.01 95 1018.4
20260902132104 72 89 1.0 3.0 0.00 0.11 0.01 95 1018.4
20260902131604 71 99 0.0 1.0 0.00 0.11 0.01 95 1018.4
20260902131104 71 80 0.0 3.0 0.00 0.11 0.01 95 1018.4
20260902130605 71 90 0.0 3.0 0.00 0.11 0.01 95 1018.4
20260902130105 71 354 0.0 1.0 0.00 0.11 0.01 95 1018.4
20260902125605 71 65 0.0 3.0 0.00 0.11 0.01 95 1018.2
20260902124604 71 18 1.0 5.0 0.00 0.11 0.01 95 1018.2
20260902124105 71 42 1.0 2.0 0.00 0.11 0.01 95 1018.2
20260902123105 71 43 1.0 3.0 0.00 0.11 0.01 95 1018.1
20260902122604 71 345 1.0 5.0 0.00 0.11 0.01 95 1018.0
20260902122105 71 66 1.0 2.0 0.00 0.11 0.01 96 1017.8
20260902121604 71 3 1.0 3.0 0.00 0.11 0.01 96 1017.9
20260902121105 71 45 0.0 3.0 0.00 0.11 0.01 96 1018.0
20260902120605 70 35 0.0 3.0 0.00 0.11 0.01 96 1018.0
20260902120105 70 27 0.0 2.0 0.00 0.11 0.01 96 1018.0
20260902115605 70 93 1.0 3.0 0.00 0.11 0.01 96 1018.0
20260902115105 70 55 1.0 3.0 0.00 0.11 0.01 96 1018.1
20260902114605 70 37 2.0 3.0 0.00 0.11 0.01 96 1018.2
20260902113605 70 52 1.0 5.0 0.00 0.11 0.01 96 1018.0
20260902113104 70 80 1.0 5.0 0.00 0.11 0.01 96 1017.9
20260902112604 70 14 1.0 3.0 0.00 0.11 0.01 96 1017.8
20260902112105 70 86 0.0 2.0 0.00 0.11 0.01 96 1017.9
20260902111605 70 75 0.0 2.0 0.00 0.11 0.01 96 1017.9
20260902111105 70 14 1.0 5.0 0.00 0.11 0.01 96 1017.8
20260902110604 70 26 1.0 3.0 0.00 0.11 0.01 96 1017.8
20260902110104 70 3 0.0 2.0 0.00 0.11 0.01 96 1017.8
20260902105604 70 41 0.0 3.0 0.00 0.11 0.01 96 1017.7
20260902105104 70 37 0.0 2.0 0.00 0.11 0.01 96 1017.8
20260902104604 70 35 0.0 1.0 0.00 0.11 0.01 96 1017.7
20260902104104 70 61 0.0 3.0 0.00 0.11 0.01 96 1017.6
20260902103604 70 45 0.0 2.0 0.00 0.11 0.01 96 1017.6
20260902103105 70 76 0.0 1.0 0.00 0.11 0.01 96 1017.5
20260902102605 70 22 0.0 1.0 0.00 0.11 0.01 96 1017.5
20260902102105 70 345 0.0 1.0 0.00 0.11 0.01 96 1017.6
20260902101605 70 345 0.0 1.0 0.00 0.11 0.01 96 1017.6
20260902101104 70 13 0.0 1.0 0.00 0.11 0.01 96 1017.6
20260902100605 70 17 0.0 1.0 0.00 0.11 0.01 96 1017.6
20260902100104 70 349 0.0 1.0 0.01 0.11 0.01 96 1017.6
20260902095604 70 349 0.0 1.0 0.01 0.11 0.01 96 1017.7
20260902095105 70 348 1.0 2.0 0.01 0.11 0.01 96 1017.5
20260902094605 70 35 0.0 1.0 0.01 0.11 0.01 96 1017.5
20260902094104 70 37 0.0 1.0 0.01 0.11 0.01 96 1017.4